Location: Saint André
(43.5594°N, 1.3519°W)
Time: 14:39:31
(UTC+00:00)

BlueWalker 3 - Pass Details

Date: 10 February 2026
Orbit: 451 x 457 km, 53.2° (Epoch: 14 March)

Event Time Altitude Azimuth Distance (km) Brightness Sun altitude
Rises 18:29:13 0° 296° (WNW) 2,461 6.4 -11.4°
Reaches altitude 10° 18:31:36 10° 282° (WNW) 1,584 5.7 -11.8°
Maximum altitude 18:34:31 24° 227° (SW) 983 4.1 -12.4°
Drops below altitude 10° 18:37:24 10° 172° (S) 1,573 4.5 -12.9°
Sets 18:39:47 0° 158° (SSE) 2,441 5.3 -13.3°
